Zurück zum Katalog

STARLINK-30562

AktivKommunikationVLEO
NORAD 58033·PAYLOAD·🇺🇸 United States

Gestartet Oct 9, 2023 von Vandenberg Space Force Base

Loading…

Nächste Überflüge (nächste 24 Stunden)

TLE

AktuellSource: CelesTrak SupGP

Epoche: Sep 14, 2026, 21:24 UTC

1 58033C 23156F   26257.89215278  .00002592  00000+0  76602-4 0  2579
2 58033  53.1602   7.9523 0001190  86.4136 157.0396 15.34379444    19

Verfolge STARLINK-30562 in Echtzeit mit AllMySat

Download on the App Store